Hutchinson, KS

3:48 PM CST on November 20, 2017 (GMT -0600)
Hutchinson Municipal

Weather History for KHUT - December, 2012

Change the Weather History Date:

Saturday, December 29, 2012

  Actual Average Record
Temperature  
Mean Temperature 27 °F -  
Max Temperature 46 °F 42 °F 68 °F (1999)
Min Temperature 8 °F 17 °F 6 °F (2013)
Degree Days  
Heating Degree Days 38    
Moisture  
Dew Point 10 °F    
Average Humidity 62    
Maximum Humidity 81    
Minimum Humidity 29    
Precipitation  
Precipitation 0.00 in - - ()
Sea Level Pressure  
Sea Level Pressure 30.31 in    
Wind  
Wind Speed 7 mph (WNW)    
Max Wind Speed 13 mph    
Max Gust Speed -    
Visibility 10 miles    
Events      
Averages and records for this station are not official NWS values.
T = Trace of Precipitation, MM = Missing Value Source: NWS Daily Summary

Daily Weather History Graph

Daily Weather History Graph

Search for Another Location

Airport or City:

Trip Planner

Search our weather history database for the weather conditions in past years. The results will help you decide how hot, cold, wet, or windy it might be!

Date:

Astronomy

Dec. 29, 2012 Rise Set
Actual Time 7:47 AM CST 5:20 PM CST
Civil Twilight 7:17 AM CST 5:49 PM CST
Nautical Twilight 6:44 AM CST 6:22 PM CST
Astronomical Twilight 6:12 AM CST 6:55 PM CST
Moon 6:53 PM CST (12/29) 8:22 AM CST (12/29)
Length of Visible Light 10h 32m
Length of Day
9h 33m
Full, 98% of the Moon is Illuminated
Dec 29
Full
Jan 4
Last Quarter
Jan 11
New
Jan 18
First Quarter
Jan 26
Full

Hourly Weather History & Observations

Time (CST) Temp. Windchill Dew Point Humidity Pressure Visibility Wind Dir Wind Speed Gust Speed Precip Events Conditions
12:52 AM 10.9 °F 0.2 °F 6.1 °F 81% 30.21 in 8.0 mi NW 6.9 mph - N/A   Clear
1:52 AM 10.9 °F -0.8 °F 6.1 °F 81% 30.23 in 8.0 mi WNW 8.1 mph - N/A   Clear
2:52 AM 10.0 °F -0.9 °F 3.9 °F 76% 30.26 in 9.0 mi NW 6.9 mph - N/A   Clear
3:52 AM 9.0 °F -2.2 °F 3.9 °F 80% 30.25 in 10.0 mi NW 6.9 mph - N/A   Clear
4:52 AM 8.1 °F -2.0 °F 1.9 °F 76% 30.27 in 10.0 mi NW 5.8 mph - N/A   Clear
5:52 AM 9.0 °F -2.2 °F 3.9 °F 80% 30.28 in 10.0 mi WNW 6.9 mph - N/A   Clear
6:52 AM 9.0 °F -0.9 °F 3.9 °F 80% 30.30 in 10.0 mi NNW 5.8 mph - N/A   Clear
7:52 AM 12.0 °F 2.7 °F 6.1 °F 77% 30.33 in 10.0 mi WNW 5.8 mph - N/A   Clear
8:52 AM 14.0 °F 3.9 °F 8.1 °F 77% 30.34 in 10.0 mi NW 6.9 mph - N/A   Clear
9:52 AM 21.9 °F 11.0 °F 12.9 °F 68% 30.37 in 10.0 mi NW 10.4 mph - N/A   Clear
10:52 AM 28.9 °F 21.1 °F 15.1 °F 56% 30.37 in 10.0 mi West 8.1 mph - N/A   Clear
11:52 AM 34.0 °F 28.0 °F 16.0 °F 48% 30.35 in 10.0 mi West 6.9 mph - N/A   Clear
12:52 PM 39.0 °F 32.8 °F 18.0 °F 43% 30.32 in 10.0 mi WNW 9.2 mph - N/A   Clear
1:52 PM 43.0 °F 37.2 °F 18.0 °F 37% 30.30 in 10.0 mi WNW 10.4 mph - N/A   Clear
2:52 PM 45.0 °F 38.9 °F 15.1 °F 30% 30.30 in 10.0 mi WNW 12.7 mph - N/A   Clear
3:52 PM 46.0 °F 40.2 °F 15.1 °F 29% 30.30 in 10.0 mi West 12.7 mph - N/A   Clear
4:52 PM 42.1 °F 37.1 °F 15.1 °F 34% 30.32 in 10.0 mi West 8.1 mph - N/A   Clear
5:52 PM 28.0 °F - 12.0 °F 51% 30.32 in 10.0 mi Calm Calm - N/A   Clear
7:52 PM 21.9 °F - 12.0 °F 66% 30.34 in 10.0 mi Calm Calm - N/A   Clear
8:52 PM 21.0 °F - 12.0 °F 68% 30.33 in 10.0 mi Calm Calm - N/A   Clear
9:52 PM 19.9 °F - 10.9 °F 68% 30.32 in 10.0 mi Calm Calm - N/A   Clear
10:52 PM 23.0 °F - 12.9 °F 65% 30.33 in 10.0 mi Calm Calm - N/A   Clear
11:52 PM 21.0 °F - 10.9 °F 65% 30.32 in 10.0 mi Calm Calm - N/A   Clear